Time,TemperatureF,DewpointF,PressureIn,WindDirection,WindDirectionDegrees,WindSpeedMPH,WindSpeedGustMPH,Humidity,HourlyPrecipIn,Conditions,Clouds,dailyrainin,SoftwareType,DateUTC
2013-03-04 00:01:00,34.0,26.0,29.57,West,276,4.0,11.0,73,0.00,,,0.00,,2013-03-04 05:01:00,
2013-03-04 00:11:00,34.0,26.0,29.57,West,276,4.0,11.0,73,0.00,,,0.00,,2013-03-04 05:11:00,
2013-03-04 00:22:00,34.0,26.0,29.57,WNW,284,6.0,13.0,73,0.00,,,0.00,,2013-03-04 05:22:00,
2013-03-04 00:32:00,34.0,26.0,29.57,WNW,298,5.0,17.0,73,0.00,,,0.00,,2013-03-04 05:32:00,
2013-03-04 00:42:00,34.0,26.0,29.57,WNW,298,5.0,17.0,73,0.00,,,0.00,,2013-03-04 05:42:00,
2013-03-04 00:52:00,33.0,26.0,29.57,NW,306,3.0,11.0,74,0.00,,,0.00,,2013-03-04 05:52:00,
2013-03-04 01:02:00,33.0,26.0,29.57,NNW,337,3.0,16.0,74,0.00,,,0.00,,2013-03-04 06:02:00,
2013-03-04 01:11:00,33.0,26.0,29.57,NNW,337,3.0,16.0,74,0.00,,,0.00,,2013-03-04 06:11:00,
2013-03-04 01:22:00,33.0,26.0,29.58,SW,233,4.0,11.0,74,0.00,,,0.00,,2013-03-04 06:22:00,
2013-03-04 01:32:00,33.0,26.0,29.58,WSW,253,5.0,14.0,74,0.00,,,0.00,,2013-03-04 06:32:00,
2013-03-04 01:42:00,33.0,26.0,29.58,WSW,253,5.0,14.0,74,0.00,,,0.00,,2013-03-04 06:42:00,
2013-03-04 01:51:00,33.0,26.0,29.57,NW,309,4.0,10.0,74,0.00,,,0.00,,2013-03-04 06:51:00,
2013-03-04 02:02:00,33.0,26.0,29.58,WNW,300,4.0,11.0,74,0.00,,,0.00,,2013-03-04 07:02:00,
2013-03-04 02:11:00,33.0,26.0,29.58,WNW,300,4.0,11.0,74,0.00,,,0.00,,2013-03-04 07:11:00,
2013-03-04 02:21:00,33.0,26.0,29.57,WSW,246,4.0,10.0,74,0.00,,,0.00,,2013-03-04 07:21:00,
2013-03-04 02:32:00,33.0,25.0,29.57,NW,310,9.0,19.0,73,0.00,,,0.00,,2013-03-04 07:32:00,
2013-03-04 02:42:00,33.0,25.0,29.57,NW,310,9.0,19.0,73,0.00,,,0.00,,2013-03-04 07:42:00,
2013-03-04 02:52:00,33.0,25.0,29.57,West,270,4.0,14.0,73,0.00,,,0.00,,2013-03-04 07:52:00,
2013-03-04 03:02:00,33.0,25.0,29.57,NW,314,6.0,10.0,73,0.00,,,0.00,,2013-03-04 08:02:00,
2013-03-04 03:12:00,33.0,25.0,29.57,NW,314,6.0,10.0,73,0.00,,,0.00,,2013-03-04 08:12:00,
2013-03-04 03:22:00,33.0,25.0,29.57,NNE,13,6.0,12.0,73,0.00,,,0.00,,2013-03-04 08:22:00,
2013-03-04 03:32:00,33.0,25.0,29.57,WNW,284,4.0,14.0,72,0.00,,,0.00,,2013-03-04 08:32:00,
2013-03-04 03:42:00,33.0,25.0,29.57,WNW,284,4.0,14.0,72,0.00,,,0.00,,2013-03-04 08:42:00,
2013-03-04 03:52:00,33.0,25.0,29.57,NW,305,5.0,12.0,72,0.00,,,0.00,,2013-03-04 08:52:00,
2013-03-04 04:02:00,33.0,25.0,29.58,West,262,4.0,14.0,72,0.00,,,0.00,,2013-03-04 09:02:00,
2013-03-04 04:11:00,33.0,25.0,29.58,West,262,4.0,14.0,72,0.00,,,0.00,,2013-03-04 09:11:00,
2013-03-04 04:21:00,32.0,24.0,29.58,NNW,336,7.0,14.0,71,0.00,,,0.00,,2013-03-04 09:21:00,
2013-03-04 04:32:00,32.0,24.0,29.58,West,267,7.0,11.0,72,0.00,,,0.00,,2013-03-04 09:32:00,
2013-03-04 04:42:00,32.0,24.0,29.58,West,267,7.0,11.0,72,0.00,,,0.00,,2013-03-04 09:42:00,
2013-03-04 04:52:00,32.0,24.0,29.58,SW,214,7.0,17.0,72,0.00,,,0.00,,2013-03-04 09:52:00,
2013-03-04 05:01:00,31.0,23.0,29.58,NW,308,3.0,14.0,72,0.00,,,0.00,,2013-03-04 10:01:00,
2013-03-04 05:12:00,31.0,23.0,29.58,NW,308,3.0,14.0,72,0.00,,,0.00,,2013-03-04 10:12:00,
2013-03-04 05:22:00,31.0,23.0,29.59,NW,312,4.0,11.0,73,0.00,,,0.00,,2013-03-04 10:22:00,
2013-03-04 05:32:00,31.0,23.0,29.59,WSW,240,6.0,15.0,73,0.00,,,0.00,,2013-03-04 10:32:00,
2013-03-04 05:42:00,31.0,23.0,29.59,WSW,240,6.0,15.0,73,0.00,,,0.00,,2013-03-04 10:42:00,
2013-03-04 05:52:00,31.0,23.0,29.59,West,269,6.0,16.0,73,0.00,,,0.00,,2013-03-04 10:52:00,
2013-03-04 06:02:00,31.0,23.0,29.59,West,264,7.0,13.0,73,0.00,,,0.00,,2013-03-04 11:02:00,
2013-03-04 06:11:00,31.0,23.0,29.59,West,264,7.0,13.0,73,0.00,,,0.00,,2013-03-04 11:11:00,
2013-03-04 06:22:00,31.0,24.0,29.59,WNW,288,5.0,15.0,74,0.00,,,0.00,,2013-03-04 11:22:00,
2013-03-04 06:32:00,30.0,23.0,29.59,NW,326,5.0,12.0,75,0.00,,,0.00,,2013-03-04 11:32:00,
2013-03-04 06:42:00,30.0,23.0,29.59,NW,326,5.0,12.0,75,0.00,,,0.00,,2013-03-04 11:42:00,
2013-03-04 06:52:00,30.0,23.0,29.59,West,274,5.0,10.0,76,0.00,,,0.00,,2013-03-04 11:52:00,
2013-03-04 07:02:00,30.0,23.0,29.60,NW,313,8.0,14.0,76,0.00,,,0.00,,2013-03-04 12:02:00,
2013-03-04 07:11:00,30.0,23.0,29.60,NW,313,8.0,14.0,76,0.00,,,0.00,,2013-03-04 12:11:00,
2013-03-04 07:22:00,31.0,24.0,29.60,WSW,246,7.0,12.0,76,0.00,,,0.00,,2013-03-04 12:22:00,
2013-03-04 07:32:00,31.0,24.0,29.61,West,259,4.0,11.0,75,0.00,,,0.00,,2013-03-04 12:32:00,
2013-03-04 07:42:00,31.0,24.0,29.61,West,259,4.0,11.0,75,0.00,,,0.00,,2013-03-04 12:42:00,
2013-03-04 07:52:00,31.0,24.0,29.61,West,260,7.0,17.0,74,0.00,,,0.00,,2013-03-04 12:52:00,
2013-03-04 08:02:00,32.0,24.0,29.60,WSW,248,4.0,15.0,73,0.00,,,0.00,,2013-03-04 13:02:00,
2013-03-04 08:11:00,32.0,24.0,29.60,WSW,248,4.0,15.0,73,0.00,,,0.00,,2013-03-04 13:11:00,
2013-03-04 08:21:00,32.0,24.0,29.59,NW,306,7.0,19.0,71,0.00,,,0.00,,2013-03-04 13:21:00,
2013-03-04 08:32:00,32.0,23.0,29.59,WSW,257,6.0,19.0,70,0.00,,,0.00,,2013-03-04 13:32:00,
2013-03-04 08:42:00,32.0,23.0,29.59,WSW,257,6.0,19.0,70,0.00,,,0.00,,2013-03-04 13:42:00,
2013-03-04 08:52:00,33.0,24.0,29.59,WSW,256,7.0,20.0,69,0.00,,,0.00,,2013-03-04 13:52:00,
2013-03-04 09:01:00,33.0,24.0,29.58,West,264,6.0,14.0,69,0.00,,,0.00,,2013-03-04 14:01:00,
2013-03-04 09:12:00,33.0,24.0,29.58,West,264,6.0,14.0,69,0.00,,,0.00,,2013-03-04 14:12:00,
2013-03-04 09:22:00,33.0,23.0,29.58,WNW,288,7.0,21.0,67,0.00,,,0.00,,2013-03-04 14:22:00,
2013-03-04 09:32:00,34.0,24.0,29.58,ESE,105,7.0,24.0,66,0.00,,,0.00,,2013-03-04 14:32:00,
2013-03-04 09:42:00,34.0,24.0,29.58,ESE,105,7.0,24.0,66,0.00,,,0.00,,2013-03-04 14:42:00,
2013-03-04 09:52:00,34.0,24.0,29.58,WSW,253,8.0,18.0,66,0.00,,,0.00,,2013-03-04 14:52:00,
2013-03-04 10:02:00,35.0,24.0,29.58,WSW,252,8.0,18.0,63,0.00,,,0.00,,2013-03-04 15:02:00,
2013-03-04 10:11:00,35.0,24.0,29.58,WSW,252,8.0,18.0,63,0.00,,,0.00,,2013-03-04 15:11:00,
2013-03-04 10:22:00,35.0,23.0,29.58,West,261,8.0,20.0,62,0.00,,,0.00,,2013-03-04 15:22:00,
2013-03-04 10:32:00,35.0,24.0,29.58,WNW,300,5.0,16.0,63,0.00,,,0.00,,2013-03-04 15:32:00,
2013-03-04 10:42:00,35.0,24.0,29.58,WNW,300,5.0,16.0,63,0.00,,,0.00,,2013-03-04 15:42:00,
2013-03-04 10:52:00,35.0,24.0,29.57,WSW,246,7.0,18.0,63,0.00,,,0.00,,2013-03-04 15:52:00,
2013-03-04 11:03:00,36.0,24.0,29.57,WSW,256,6.0,15.0,62,0.00,,,0.00,,2013-03-04 16:03:00,
2013-03-04 11:11:00,36.0,24.0,29.57,WSW,256,6.0,15.0,62,0.00,,,0.00,,2013-03-04 16:11:00,
2013-03-04 11:21:00,35.0,23.0,29.57,WSW,245,7.0,25.0,62,0.00,,,0.00,,2013-03-04 16:21:00,
2013-03-04 11:32:00,36.0,24.0,29.57,WNW,284,9.0,25.0,61,0.00,,,0.00,,2013-03-04 16:32:00,
2013-03-04 11:42:00,36.0,24.0,29.57,WNW,284,9.0,25.0,61,0.00,,,0.00,,2013-03-04 16:42:00,
2013-03-04 11:52:00,37.0,24.0,29.57,West,264,7.0,22.0,60,0.00,,,0.00,,2013-03-04 16:52:00,
2013-03-04 12:02:00,38.0,25.0,29.57,NW,312,5.0,11.0,60,0.00,,,0.00,,2013-03-04 17:02:00,
2013-03-04 12:11:00,38.0,25.0,29.57,NW,312,5.0,11.0,60,0.00,,,0.00,,2013-03-04 17:11:00,
2013-03-04 12:22:00,37.0,24.0,29.56,West,274,6.0,20.0,60,0.00,,,0.00,,2013-03-04 17:22:00,
2013-03-04 12:32:00,37.0,25.0,29.56,SSE,156,5.0,20.0,61,0.00,,,0.00,,2013-03-04 17:32:00,
2013-03-04 12:42:00,37.0,25.0,29.56,SSE,156,5.0,20.0,61,0.00,,,0.00,,2013-03-04 17:42:00,
2013-03-04 12:52:00,37.0,24.0,29.55,West,281,11.0,21.0,60,0.00,,,0.00,,2013-03-04 17:52:00,
2013-03-04 13:02:00,38.0,25.0,29.54,West,281,5.0,21.0,59,0.00,,,0.00,,2013-03-04 18:02:00,
2013-03-04 13:11:00,38.0,25.0,29.54,West,281,5.0,21.0,59,0.00,,,0.00,,2013-03-04 18:11:00,
2013-03-04 13:22:00,38.0,25.0,29.54,NW,308,10.0,20.0,60,0.00,,,0.00,,2013-03-04 18:22:00,
2013-03-04 13:32:00,38.0,25.0,29.54,NW,315,8.0,15.0,60,0.00,,,0.00,,2013-03-04 18:32:00,
2013-03-04 13:42:00,38.0,25.0,29.54,NW,315,8.0,15.0,60,0.00,,,0.00,,2013-03-04 18:42:00,
2013-03-04 13:52:00,38.0,25.0,29.54,WSW,257,7.0,19.0,60,0.00,,,0.00,,2013-03-04 18:52:00,
2013-03-04 14:02:00,38.0,26.0,29.54,NW,304,8.0,19.0,62,0.00,,,0.00,,2013-03-04 19:02:00,
2013-03-04 14:12:00,38.0,26.0,29.54,NW,304,8.0,19.0,62,0.00,,,0.00,,2013-03-04 19:12:00,
2013-03-04 14:22:00,38.0,26.0,29.54,West,259,8.0,19.0,62,0.00,,,0.00,,2013-03-04 19:22:00,
2013-03-04 14:32:00,38.0,26.0,29.54,West,263,9.0,21.0,62,0.00,,,0.00,,2013-03-04 19:32:00,
2013-03-04 14:42:00,38.0,26.0,29.54,West,263,9.0,21.0,62,0.00,,,0.00,,2013-03-04 19:42:00,
2013-03-04 14:52:00,37.0,26.0,29.54,SW,236,9.0,17.0,64,0.00,,,0.00,,2013-03-04 19:52:00,
2013-03-04 15:02:00,37.0,27.0,29.55,West,263,9.0,18.0,67,0.00,,,0.00,,2013-03-04 20:02:00,
2013-03-04 15:11:00,37.0,27.0,29.55,West,263,9.0,18.0,67,0.00,,,0.00,,2013-03-04 20:11:00,
2013-03-04 15:22:00,36.0,27.0,29.55,SSE,163,9.0,20.0,69,0.00,,,0.00,,2013-03-04 20:22:00,
2013-03-04 15:32:00,36.0,28.0,29.55,NNE,25,6.0,14.0,71,0.00,,,0.00,,2013-03-04 20:32:00,
2013-03-04 15:42:00,36.0,28.0,29.55,NNE,25,6.0,14.0,71,0.00,,,0.00,,2013-03-04 20:42:00,
2013-03-04 15:52:00,36.0,28.0,29.55,NW,308,6.0,15.0,73,0.00,,,0.00,,2013-03-04 20:52:00,
2013-03-04 16:02:00,36.0,28.0,29.55,NNW,330,5.0,19.0,72,0.00,,,0.00,,2013-03-04 21:02:00,
2013-03-04 16:12:00,36.0,28.0,29.55,NNW,330,5.0,19.0,72,0.00,,,0.00,,2013-03-04 21:12:00,
2013-03-04 16:22:00,36.0,27.0,29.56,NW,314,5.0,17.0,69,0.00,,,0.00,,2013-03-04 21:22:00,
2013-03-04 16:32:00,37.0,26.0,29.56,WNW,301,6.0,16.0,65,0.00,,,0.00,,2013-03-04 21:32:00,
2013-03-04 16:42:00,37.0,26.0,29.56,WNW,301,6.0,16.0,65,0.00,,,0.00,,2013-03-04 21:42:00,
2013-03-04 16:53:00,37.0,26.0,29.57,WNW,294,8.0,22.0,64,0.00,,,0.00,,2013-03-04 21:53:00,
2013-03-04 17:02:00,36.0,26.0,29.58,WSW,252,9.0,22.0,66,0.00,,,0.00,,2013-03-04 22:02:00,
2013-03-04 17:12:00,36.0,26.0,29.58,WSW,252,9.0,22.0,66,0.00,,,0.00,,2013-03-04 22:12:00,
2013-03-04 17:22:00,36.0,26.0,29.58,North,359,9.0,25.0,67,0.00,,,0.00,,2013-03-04 22:22:00,
2013-03-04 17:32:00,36.0,27.0,29.59,West,281,7.0,14.0,69,0.00,,,0.00,,2013-03-04 22:32:00,
2013-03-04 17:42:00,36.0,27.0,29.59,West,281,7.0,14.0,69,0.00,,,0.00,,2013-03-04 22:42:00,
2013-03-04 17:52:00,35.0,28.0,29.61,WSW,242,7.0,21.0,74,0.00,,,0.00,,2013-03-04 22:52:00,
2013-03-04 18:02:00,33.0,29.0,29.61,SW,222,7.0,19.0,84,0.00,,,0.00,,2013-03-04 23:02:00,
2013-03-04 18:11:00,33.0,29.0,29.61,SW,222,7.0,19.0,84,0.00,,,0.00,,2013-03-04 23:11:00,
2013-03-04 18:22:00,32.0,28.0,29.62,NNW,341,7.0,13.0,86,0.00,,,0.00,,2013-03-04 23:22:00,
2013-03-04 18:32:00,32.0,28.0,29.62,NW,323,6.0,23.0,86,0.00,,,0.00,,2013-03-04 23:32:00,
2013-03-04 18:42:00,32.0,28.0,29.62,NW,323,6.0,23.0,86,0.00,,,0.00,,2013-03-04 23:42:00,
2013-03-04 18:52:00,32.0,28.0,29.63,NW,315,7.0,17.0,86,0.00,,,0.00,,2013-03-04 23:52:00,
2013-03-04 19:02:00,32.0,28.0,29.63,WNW,295,6.0,22.0,84,0.00,,,0.00,,2013-03-05 00:02:00,
2013-03-04 19:12:00,32.0,28.0,29.63,WNW,295,6.0,22.0,84,0.00,,,0.00,,2013-03-05 00:12:00,
2013-03-04 19:22:00,32.0,27.0,29.63,NNW,333,5.0,18.0,83,0.00,,,0.00,,2013-03-05 00:22:00,
2013-03-04 19:32:00,32.0,27.0,29.63,NW,319,8.0,13.0,82,0.00,,,0.00,,2013-03-05 00:32:00,
2013-03-04 19:42:00,32.0,27.0,29.63,NW,319,8.0,13.0,82,0.00,,,0.00,,2013-03-05 00:42:00,
2013-03-04 19:51:00,32.0,27.0,29.64,WNW,284,5.0,16.0,80,0.00,,,0.00,,2013-03-05 00:51:00,
2013-03-04 20:02:00,32.0,26.0,29.64,WSW,255,7.0,17.0,77,0.00,,,0.00,,2013-03-05 01:02:00,
2013-03-04 20:12:00,32.0,26.0,29.64,WSW,255,7.0,17.0,77,0.00,,,0.00,,2013-03-05 01:12:00,
2013-03-04 20:22:00,32.0,25.0,29.65,NNW,331,8.0,16.0,75,0.00,,,0.00,,2013-03-05 01:22:00,
2013-03-04 20:32:00,32.0,25.0,29.65,WNW,291,4.0,17.0,74,0.00,,,0.00,,2013-03-05 01:32:00,
2013-03-04 20:42:00,32.0,25.0,29.65,WNW,291,4.0,17.0,74,0.00,,,0.00,,2013-03-05 01:42:00,
2013-03-04 20:52:00,32.0,24.0,29.66,NNE,25,6.0,14.0,72,0.00,,,0.00,,2013-03-05 01:52:00,
2013-03-04 21:01:00,32.0,24.0,29.67,WNW,297,5.0,17.0,71,0.00,,,0.00,,2013-03-05 02:01:00,
2013-03-04 21:11:00,32.0,24.0,29.67,WNW,297,5.0,17.0,71,0.00,,,0.00,,2013-03-05 02:11:00,
2013-03-04 21:22:00,32.0,23.0,29.67,WNW,297,7.0,17.0,70,0.00,,,0.00,,2013-03-05 02:22:00,
2013-03-04 21:32:00,32.0,23.0,29.67,WNW,297,9.0,20.0,70,0.00,,,0.00,,2013-03-05 02:32:00,
2013-03-04 21:42:00,32.0,23.0,29.67,WNW,297,9.0,20.0,70,0.00,,,0.00,,2013-03-05 02:42:00,
2013-03-04 21:53:00,32.0,23.0,29.67,NW,319,6.0,18.0,70,0.00,,,0.00,,2013-03-05 02:53:00,
2013-03-04 22:02:00,32.0,23.0,29.68,NNW,333,5.0,19.0,70,0.00,,,0.00,,2013-03-05 03:02:00,
2013-03-04 22:12:00,32.0,23.0,29.68,NNW,333,5.0,19.0,70,0.00,,,0.00,,2013-03-05 03:12:00,
2013-03-04 22:22:00,32.0,24.0,29.69,West,280,7.0,17.0,71,0.00,,,0.00,,2013-03-05 03:22:00,
2013-03-04 22:32:00,31.0,23.0,29.69,West,276,7.0,15.0,71,0.00,,,0.00,,2013-03-05 03:32:00,
2013-03-04 22:42:00,31.0,23.0,29.69,West,276,7.0,15.0,71,0.00,,,0.00,,2013-03-05 03:42:00,
2013-03-04 22:52:00,31.0,23.0,29.69,WSW,241,3.0,15.0,72,0.00,,,0.00,,2013-03-05 03:52:00,
2013-03-04 23:02:00,31.0,23.0,29.69,NW,308,5.0,11.0,73,0.00,,,0.00,,2013-03-05 04:02:00,
2013-03-04 23:12:00,31.0,23.0,29.69,NW,308,5.0,11.0,73,0.00,,,0.00,,2013-03-05 04:12:00,
2013-03-04 23:22:00,31.0,23.0,29.70,WNW,287,5.0,11.0,73,0.00,,,0.00,,2013-03-05 04:22:00,
2013-03-04 23:32:00,31.0,23.0,29.70,NW,314,4.0,19.0,73,0.00,,,0.00,,2013-03-05 04:32:00,
2013-03-04 23:42:00,31.0,23.0,29.70,NW,314,4.0,19.0,73,0.00,,,0.00,,2013-03-05 04:42:00,
2013-03-04 23:52:00,31.0,23.0,29.70,WNW,295,6.0,13.0,73,0.00,,,0.00,,2013-03-05 04:52:00,